TimeMDT,TemperatureF,Dew PointF,Humidity,Sea Level PressureIn,VisibilityMPH,Wind Direction,Wind SpeedMPH,Gust SpeedMPH,PrecipitationIn,Events,Conditions,WindDirDegrees,DateUTC
12:54 AM,34.0,30.9,89,29.75,10.0,NNW,3.5,-,N/A,,Clear,330,2013-03-22 06:54:00
1:28 AM,33.8,30.2,87,29.85,10.0,NNE,4.6,-,N/A,,Mostly Cloudy,20,2013-03-22 07:28:00
1:54 AM,35.1,30.0,82,29.72,10.0,NNE,6.9,-,N/A,,Overcast,30,2013-03-22 07:54:00
2:54 AM,36.0,30.9,82,29.70,10.0,Calm,Calm,-,N/A,,Overcast,0,2013-03-22 08:54:00
3:08 AM,35.6,30.2,81,29.83,10.0,Calm,Calm,-,N/A,,Overcast,0,2013-03-22 09:08:00
3:54 AM,34.0,30.9,89,29.71,10.0,SSE,4.6,-,N/A,,Overcast,160,2013-03-22 09:54:00
4:01 AM,33.8,30.2,87,29.82,10.0,SE,4.6,-,N/A,,Overcast,140,2013-03-22 10:01:00
4:15 AM,33.8,30.2,87,29.82,10.0,SE,4.6,-,N/A,,Overcast,130,2013-03-22 10:15:00
4:54 AM,35.1,30.9,85,29.72,10.0,ESE,3.5,-,N/A,,Overcast,110,2013-03-22 10:54:00
5:54 AM,34.0,30.9,89,29.73,10.0,ESE,3.5,-,N/A,,Overcast,110,2013-03-22 11:54:00
6:34 AM,33.8,30.2,87,29.83,9.0,East,6.9,-,N/A,,Overcast,90,2013-03-22 12:34:00
6:54 AM,32.0,30.0,92,29.77,6.0,East,5.8,-,N/A,,Overcast,90,2013-03-22 12:54:00
7:06 AM,32.0,30.2,93,29.84,1.8,East,6.9,-,N/A,,Overcast,90,2013-03-22 13:06:00
7:17 AM,32.0,30.2,93,29.84,3.0,ESE,8.1,-,N/A,,Overcast,110,2013-03-22 13:17:00
7:54 AM,32.0,28.9,88,29.80,9.0,East,9.2,-,N/A,,Overcast,90,2013-03-22 13:54:00
8:36 AM,33.8,30.2,87,29.86,10.0,SE,9.2,-,N/A,,Overcast,130,2013-03-22 14:36:00
8:54 AM,35.1,28.9,78,29.83,10.0,SE,12.7,-,N/A,,Overcast,130,2013-03-22 14:54:00
9:54 AM,35.1,27.0,72,29.84,10.0,SE,11.5,-,N/A,,Overcast,130,2013-03-22 15:54:00
10:54 AM,42.1,25.0,51,29.78,10.0,ESE,11.5,-,N/A,,Overcast,110,2013-03-22 16:54:00
11:54 AM,45.0,24.1,44,29.74,10.0,Calm,Calm,-,N/A,,Partly Cloudy,0,2013-03-22 17:54:00
12:54 PM,51.1,21.9,32,29.67,10.0,SW,9.2,21.9,N/A,,Clear,230,2013-03-22 18:54:00
1:54 PM,54.0,19.0,25,29.59,10.0,SW,29.9,42.6,N/A,,Clear,220,2013-03-22 19:54:00
2:54 PM,51.1,24.1,35,29.61,10.0,SW,29.9,41.4,N/A,,Partly Cloudy,230,2013-03-22 20:54:00
3:54 PM,48.9,27.0,43,29.60,10.0,South,23.0,31.1,N/A,,Overcast,180,2013-03-22 21:54:00
4:54 PM,52.0,27.0,38,29.55,10.0,South,24.2,28.8,N/A,,Partly Cloudy,190,2013-03-22 22:54:00
5:54 PM,52.0,17.1,25,29.53,10.0,SW,12.7,-,N/A,,Clear,220,2013-03-22 23:54:00
6:54 PM,48.9,21.0,33,29.54,10.0,ESE,3.5,-,N/A,,Scattered Clouds,110,2013-03-23 00:54:00
7:54 PM,44.1,14.0,30,29.57,10.0,SW,11.5,-,N/A,,Partly Cloudy,220,2013-03-23 01:54:00
8:54 PM,46.9,19.0,33,29.54,10.0,South,16.1,-,N/A,,Clear,190,2013-03-23 02:54:00
9:54 PM,46.0,26.1,46,29.56,10.0,SW,16.1,-,N/A,,Clear,220,2013-03-23 03:54:00
10:54 PM,36.0,24.1,62,29.65,10.0,NNW,18.4,24.2,N/A,,Clear,330,2013-03-23 04:54:00
11:54 PM,32.0,23.0,69,29.69,10.0,NW,20.7,28.8,N/A,,Clear,310,2013-03-23 05:54:00